This demonstration page uses our WeatherBlox Daily Observations layout. Learn more.

Left ArrowRight Arrow

39.92423, -83.80882

Hourly Observations for June 23, 2022

Temp ( °F °C ) Dew Point ( °F °C ) Humidity (%) Winds ( mph kmh ) Pressure ( in mb ) Visibility ( mi km ) Precip ( " mm )
12:56 am 00:56 Clear 69 20.6 56 13.3 63 63 NNW 9 15 29.98 1015 10 16 0.00 0.00
1:56 am 01:56 Clear 68 20 57 13.9 68 68 NNW 7 11 29.97 1015 10 16 0.00 0.00
2:56 am 02:56 Clear 67 19.4 56 13.3 68 68 NNW 8 13 29.96 1015 10 16 0.00 0.00
3:56 am 03:56 Clear 64 17.8 56 13.3 75 75 NW 6 9 29.96 1014 10 16 0.00 0.00
4:56 am 04:56 Clear 62 16.7 57 13.9 84 84 NW 5 7 29.96 1014 10 16 0.00 0.00
5:56 am 05:56 Clear 62 16.7 57 13.9 84 84 NNW 3 6 29.96 1015 10 16 0.00 0.00
6:56 am 06:56 Sunny 64 17.8 58 14.4 81 81 N 7 11 29.98 1015 10 16 0.00 0.00
7:56 am 07:56 Sunny 68 20 60 15.6 76 76 NNE 9 15 29.98 1015 10 16 0.00 0.00
8:56 am 08:56 Sunny 72 22.2 61 16.1 68 68 NNE 13 20 29.99 1016 10 16 0.00 0.00
9:56 am 09:56 Sunny 75 23.9 59 15 58 58 NE 14 22 30.01 1016 10 16 0.00 0.00
10:56 am 10:56 Sunny 77 25 59 15 54 54 N 10 17 30.01 1016 10 16 0.00 0.00
11:56 am 11:56 Sunny 80 26.7 58 14.4 47 47 N 13 20 30.00 1016 10 16 0.00 0.00
12:56 pm 12:56 Sunny 81 27.2 56 13.3 42 42 N 9 15 30.01 1016 10 16 0.00 0.00
1:56 pm 13:56 Sunny 82 27.8 54 12.2 38 38 N 9 15 30.01 1016 10 16 0.00 0.00
2:56 pm 14:56 Sunny 84 28.9 48 8.9 29 29 N 14 22 29.99 1016 10 16 0.00 0.00
3:56 pm 15:56 Sunny 84 28.9 50 10 31 31 NNW 9 15 29.98 1015 10 16 0.00 0.00
4:56 pm 16:56 Sunny 84 28.9 48 8.9 29 29 N 12 19 29.98 1015 10 16 0.00 0.00
5:56 pm 17:56 Sunny 84 28.9 48 8.9 29 29 NNW 10 17 29.97 1015 10 16 0.00 0.00
6:56 pm 18:56 Sunny 82 27.8 46 7.8 28 28 N 7 11 29.97 1015 10 16 0.00 0.00
7:56 pm 19:56 Sunny 80 26.7 47 8.3 31 31 NNW 8 13 29.98 1015 10 16 0.00 0.00
8:56 pm 20:56 Sunny 77 25 48 8.9 36 36 N 5 7 29.98 1015 10 16 0.00 0.00
9:56 pm 21:56 Clear 70 21.1 49 9.4 47 47 NNE 3 6 29.99 1016 10 16 0.00 0.00
10:56 pm 22:56 Clear 65 18.3 51 10.6 61 61 ENE 6 9 30.01 1016 10 16 0.00 0.00
11:56 pm 23:56 Clear 63 17.2 52 11.1 68 68 E 5 7 30.00 1016 10 16 0.00 0.00

Powered by AerisWeather